Location: Newark
(21.0319°N, 105.8400°E)
Time: 02:06:58
(UTC+00:00)

Envisat - Visible Passes

Search period start: 16 December 2019 00:00
Search period end: 26 December 2019 00:00
Orbit: 764 x 766 km, 98.1° (Epoch: 15 December)

Date Brightness Start Highest point End Pass type
(mag) Time Alt. Az. Time Alt. Az. Time Alt. Az.
16 Dec 5.7 12:08:29 10° SW 12:11:58 19° W 12:15:27 10° NW visible
16 Dec 5.5 22:48:26 10° NE 22:52:37 26° E 22:56:48 10° SSE visible
17 Dec 3.9 11:30:15 10° S 11:35:08 50° W 11:40:03 10° NNW visible
18 Dec 3.0 10:53:27 10° SSE 10:58:25 61° ENE 11:03:26 10° N visible
19 Dec 5.3 11:56:33 10° SSW 12:00:40 25° W 12:04:47 10° NW visible
19 Dec 5.9 22:37:42 10° NE 22:41:19 20° E 22:44:55 10° SE visible
20 Dec 3.4 11:18:50 10° S 11:23:51 67° WSW 11:28:54 10° NNW visible
21 Dec 3.3 10:42:23 10° SSE 10:47:11 45° ENE 10:52:00 10° N visible
21 Dec 6.1 12:24:16 10° WSW 12:26:13 12° W 12:28:11 10° WNW visible
21 Dec 4.7 23:02:08 10° NNE 23:06:51 39° E 23:11:33 10° SSE visible
22 Dec 4.8 11:44:50 10° SSW 11:49:21 33° W 11:53:54 10° NW visible
22 Dec 6.1 22:27:16 10° ENE 22:30:00 14° E 22:32:42 10° SE visible
23 Dec 3.0 11:07:31 10° SSE 11:12:36 90° W 11:17:40 10° NNW visible
24 Dec 5.9 12:11:44 10° SW 12:14:54 17° W 12:18:05 10° WNW visible
24 Dec 5.3 22:51:11 10° NE 22:55:33 29° E 22:59:54 10° SSE visible
25 Dec 4.2 11:33:14 10° S 11:38:04 44° W 11:42:53 10° NNW visible
25 Dec 6.5 22:17:52 10° E 22:18:40 10° E 22:19:26 10° ESE visible
